User: anonymous   Login
Location: Unspecified
(0.0000°N, 0.0000°E)
Time: 14:46:42
(UTC+00:00)
Language:

ATS 6 - Orbit

View from above orbital plane
View from above orbital plane
View from above satellite
View from above satellite

Ground track
Ground track

The orbit data is extracted from the following two-line orbital elements,

1  7318U 74039A   17202.45236242 -.00000092 +00000-0 +00000-0 0  9994
2  7318 009.5276 307.6891 0031487 221.8438 151.2884 01.01980075088832
Epoch (UTC): 21 July 2017 10:51:24
Eccentricity: 0.0031487
inclination: 9.5276°
perigee height: 35183 km
apogee height: 35445 km
right ascension of ascending node: 307.6891°
argument of perigee: 221.8438°
revolutions per day: 1.01980075
mean anomaly at epoch: 151.2884°
orbit number at epoch: 8883

The dashed part of the orbit path shows where the satellite is in the earth's shadow,  

DLR